Torna al catalogo

STARLINK-33623

AttivoComunicazioniVLEO
NORAD 63072·PAYLOAD·🇺🇸 United States

Lanciato Feb 21, 2025 da Cape Canaveral Space Force Station

Loading…

Prossimi Passaggi (prossime 24 ore)

TLE

AggiornatoSource: CelesTrak SupGP

Epoca: Sep 14, 2026, 15:08 UTC

1 63072C 25035W   26257.63104167  .00046734  00000+0  16932-2 0  2576
2 63072  43.0013 160.3519 0001526 262.3057  47.4576 15.27546188    16

Traccia STARLINK-33623 in tempo reale con AllMySat

Download on the App Store